TimeCDT,TemperatureF,Dew PointF,Humidity,Sea Level PressureIn,VisibilityMPH,Wind Direction,Wind SpeedMPH,Gust SpeedMPH,PrecipitationIn,Events,Conditions,WindDirDegrees,DateUTC
12:15 AM,74.5,68.4,81,30.10,10.0,Calm,Calm,-,N/A,,Scattered Clouds,0,2013-05-27 05:15:00
12:35 AM,74.7,68.9,82,30.09,10.0,ESE,4.6,-,N/A,,Scattered Clouds,120,2013-05-27 05:35:00
12:55 AM,74.8,69.3,83,30.08,10.0,ESE,3.5,-,N/A,,Scattered Clouds,110,2013-05-27 05:55:00
1:15 AM,74.7,69.3,83,30.08,10.0,ESE,3.5,-,N/A,,Clear,110,2013-05-27 06:15:00
1:35 AM,74.3,69.1,84,30.08,10.0,SE,3.5,-,N/A,,Clear,130,2013-05-27 06:35:00
1:55 AM,74.5,68.9,83,30.08,10.0,ESE,3.5,-,N/A,,Clear,110,2013-05-27 06:55:00
2:15 AM,73.6,68.9,85,30.07,10.0,East,3.5,-,N/A,,Clear,100,2013-05-27 07:15:00
2:35 AM,73.4,68.7,85,30.07,10.0,East,3.5,-,N/A,,Clear,90,2013-05-27 07:35:00
2:55 AM,73.4,69.1,86,30.07,10.0,Calm,Calm,-,N/A,,Clear,0,2013-05-27 07:55:00
3:15 AM,72.7,68.7,87,30.06,10.0,Calm,Calm,-,N/A,,Clear,0,2013-05-27 08:15:00
3:35 AM,72.1,68.4,88,30.06,7.0,East,3.5,-,N/A,,Clear,80,2013-05-27 08:35:00
3:55 AM,72.5,68.9,88,30.06,7.0,Calm,Calm,-,N/A,,Scattered Clouds,0,2013-05-27 08:55:00
4:15 AM,72.5,68.9,88,30.06,7.0,Calm,Calm,-,N/A,,Scattered Clouds,0,2013-05-27 09:15:00
4:35 AM,72.5,68.9,88,30.06,7.0,Calm,Calm,-,N/A,,Clear,0,2013-05-27 09:35:00
4:55 AM,72.3,68.7,88,30.06,10.0,East,3.5,-,N/A,,Clear,80,2013-05-27 09:55:00
5:15 AM,72.1,68.5,88,30.07,10.0,East,4.6,-,N/A,,Clear,90,2013-05-27 10:15:00
5:35 AM,72.5,68.9,88,30.07,10.0,East,4.6,-,N/A,,Scattered Clouds,100,2013-05-27 10:35:00
5:55 AM,72.5,68.9,88,30.07,10.0,East,4.6,-,N/A,,Scattered Clouds,100,2013-05-27 10:55:00
6:15 AM,72.7,68.9,88,30.08,10.0,East,4.6,-,N/A,,Clear,100,2013-05-27 11:15:00
6:35 AM,73.0,69.1,87,30.08,10.0,East,4.6,-,N/A,,Scattered Clouds,100,2013-05-27 11:35:00
6:55 AM,73.8,69.1,85,30.08,10.0,East,5.8,-,N/A,,Scattered Clouds,100,2013-05-27 11:55:00
7:15 AM,75.2,69.8,83,30.09,10.0,ESE,4.6,-,N/A,,Mostly Cloudy,110,2013-05-27 12:15:00
7:35 AM,75.9,70.2,82,30.09,10.0,East,5.8,-,N/A,,Mostly Cloudy,100,2013-05-27 12:35:00
7:55 AM,77.5,70.5,79,30.10,10.0,ESE,4.6,-,N/A,,Mostly Cloudy,110,2013-05-27 12:55:00
8:15 AM,77.0,70.3,80,30.10,10.0,East,3.5,-,N/A,,Overcast,100,2013-05-27 13:15:00
8:35 AM,77.2,70.9,81,30.11,10.0,East,4.6,-,N/A,,Mostly Cloudy,100,2013-05-27 13:35:00
8:55 AM,77.9,71.2,80,30.10,10.0,Calm,Calm,-,N/A,,Scattered Clouds,0,2013-05-27 13:55:00
9:15 AM,80.8,70.5,71,30.10,10.0,SE,9.2,-,N/A,,Scattered Clouds,130,2013-05-27 14:15:00
9:35 AM,82.2,67.5,61,30.10,10.0,South,11.5,16.1,N/A,,Scattered Clouds,170,2013-05-27 14:35:00
9:55 AM,83.1,66.6,57,30.10,10.0,South,11.5,-,N/A,,Scattered Clouds,170,2013-05-27 14:55:00
10:15 AM,83.5,65.8,55,30.10,10.0,South,11.5,-,N/A,,Scattered Clouds,180,2013-05-27 15:15:00
10:35 AM,84.0,66.9,56,30.10,10.0,South,11.5,16.1,N/A,,Scattered Clouds,170,2013-05-27 15:35:00
10:55 AM,85.3,63.7,48,30.10,10.0,South,12.7,18.4,N/A,,Scattered Clouds,170,2013-05-27 15:55:00
11:15 AM,85.3,63.5,48,30.10,10.0,SSE,12.7,16.1,N/A,,Scattered Clouds,160,2013-05-27 16:15:00
11:35 AM,86.0,64.8,49,30.10,10.0,South,11.5,16.1,N/A,,Scattered Clouds,170,2013-05-27 16:35:00
11:55 AM,85.8,62.2,45,30.10,10.0,South,12.7,-,N/A,,Scattered Clouds,170,2013-05-27 16:55:00
12:15 PM,86.5,62.1,44,30.09,10.0,SSE,15.0,-,N/A,,Scattered Clouds,150,2013-05-27 17:15:00
12:35 PM,85.8,62.6,46,30.09,10.0,SSE,11.5,-,N/A,,Scattered Clouds,160,2013-05-27 17:35:00
12:55 PM,86.9,61.7,43,30.09,10.0,SSE,13.8,-,N/A,,Scattered Clouds,160,2013-05-27 17:55:00
1:15 PM,86.9,60.6,41,30.08,10.0,SSE,11.5,18.4,N/A,,Scattered Clouds,150,2013-05-27 18:15:00
1:35 PM,87.3,58.3,37,30.08,10.0,South,11.5,18.4,N/A,,Scattered Clouds,190,2013-05-27 18:35:00
1:55 PM,87.6,59.5,39,30.08,10.0,South,12.7,18.4,N/A,,Clear,170,2013-05-27 18:55:00
2:15 PM,87.3,58.1,37,30.07,10.0,South,10.4,-,N/A,,Clear,170,2013-05-27 19:15:00
2:35 PM,87.1,59.7,40,30.06,10.0,South,11.5,19.6,N/A,,Clear,170,2013-05-27 19:35:00
2:55 PM,86.9,59.0,39,30.05,10.0,SSE,12.7,17.3,N/A,,Clear,160,2013-05-27 19:55:00
3:15 PM,87.1,55.4,34,30.05,10.0,South,12.7,-,N/A,,Clear,170,2013-05-27 20:15:00
3:35 PM,86.9,58.8,39,30.04,10.0,South,11.5,16.1,N/A,,Clear,170,2013-05-27 20:35:00
3:55 PM,86.9,58.8,39,30.04,10.0,SSE,11.5,20.7,N/A,,Clear,160,2013-05-27 20:55:00
4:15 PM,86.9,58.6,38,30.03,10.0,South,12.7,19.6,N/A,,Clear,180,2013-05-27 21:15:00
4:35 PM,86.7,62.4,44,30.03,10.0,South,12.7,-,N/A,,Scattered Clouds,170,2013-05-27 21:35:00
4:55 PM,85.8,61.9,44,30.03,10.0,South,10.4,18.4,N/A,,Clear,170,2013-05-27 21:55:00
5:15 PM,85.6,62.6,46,30.02,10.0,SSE,10.4,-,N/A,,Clear,160,2013-05-27 22:15:00
5:35 PM,85.1,62.2,46,30.02,10.0,SSE,9.2,17.3,N/A,,Clear,160,2013-05-27 22:35:00
5:55 PM,85.1,63.0,47,30.01,10.0,South,10.4,-,N/A,,Clear,180,2013-05-27 22:55:00
6:15 PM,84.2,62.8,48,30.01,10.0,South,9.2,16.1,N/A,,Clear,170,2013-05-27 23:15:00
6:35 PM,83.5,62.8,50,30.00,10.0,SSE,11.5,-,N/A,,Clear,160,2013-05-27 23:35:00
6:55 PM,82.8,63.0,51,30.01,10.0,South,10.4,-,N/A,,Clear,180,2013-05-27 23:55:00
7:15 PM,81.7,64.8,56,30.00,10.0,South,6.9,-,N/A,,Clear,170,2013-05-28 00:15:00
7:35 PM,80.4,65.3,60,30.01,10.0,South,4.6,-,N/A,,Clear,170,2013-05-28 00:35:00
7:55 PM,78.3,66.4,67,30.01,10.0,South,4.6,-,N/A,,Clear,170,2013-05-28 00:55:00
8:15 PM,77.0,67.1,71,30.01,10.0,SSE,3.5,-,N/A,,Clear,160,2013-05-28 01:15:00
8:35 PM,76.5,67.3,73,30.01,10.0,SSE,3.5,-,N/A,,Clear,160,2013-05-28 01:35:00
8:55 PM,75.9,67.3,74,30.01,10.0,SSE,3.5,-,N/A,,Clear,160,2013-05-28 01:55:00
9:15 PM,75.9,67.5,75,30.01,10.0,SSE,3.5,-,N/A,,Scattered Clouds,160,2013-05-28 02:15:00
9:35 PM,75.2,68.5,80,30.02,10.0,SE,3.5,-,N/A,,Scattered Clouds,130,2013-05-28 02:35:00
9:55 PM,74.7,68.7,82,30.03,10.0,Calm,Calm,-,N/A,,Scattered Clouds,0,2013-05-28 02:55:00
10:15 PM,73.9,68.5,83,30.03,10.0,Calm,Calm,-,N/A,,Clear,0,2013-05-28 03:15:00
10:35 PM,73.8,68.4,83,30.03,10.0,Calm,Calm,-,N/A,,Clear,0,2013-05-28 03:35:00
10:55 PM,73.4,68.9,86,30.04,7.0,Calm,Calm,-,N/A,,Scattered Clouds,0,2013-05-28 03:55:00
11:15 PM,73.8,69.3,86,30.05,7.0,Calm,Calm,-,N/A,,Scattered Clouds,0,2013-05-28 04:15:00
11:35 PM,74.8,68.5,81,30.05,10.0,SSE,3.5,-,N/A,,Scattered Clouds,150,2013-05-28 04:35:00
11:55 PM,75.2,69.1,81,30.05,10.0,SSE,5.8,-,N/A,,Scattered Clouds,150,2013-05-28 04:55:00